This is the latest recevied weather packets stored in our database for station/object KQ4OSL. If no packets are shown the sender has not sent any weather packets the latest 10 day(s).
| Time | Temp. | Humidity | Pressure | Rain* | Wind** | Luminosity | Snow |
|---|---|---|---|---|---|---|---|
| 1787452323 | 23.33° C | 95% | 1018.1 hPa | 0 mm | - | 0 W/m² | - |
| 1787452019 | 23.33° C | 95% | 1018.1 hPa | 0 mm | - | 0 W/m² | - |
| 1787451719 | 23.33° C | 96% | 1018.2 hPa | 0 mm | - | 0 W/m² | - |
| 1787451418 | 23.33° C | 95% | 1018 hPa | 0 mm | - | 0 W/m² | - |
| 1787451114 | 23.33° C | 94% | 1017.8 hPa | 0 mm | - | 0 W/m² | - |
| 1787450809 | 23.33° C | 93% | 1017.7 hPa | 0 mm | - | 0 W/m² | - |
| 1787450504 | 22.78° C | 94% | 1017.7 hPa | 0 mm | - | 0 W/m² | - |
| 1787450200 | 22.78° C | 96% | 1017.8 hPa | 0 mm | - | 0 W/m² | - |
| 1787449896 | 22.78° C | 96% | 1017.7 hPa | 0 mm | - | 0 W/m² | - |
| 1787449591 | 22.78° C | 96% | 1017.8 hPa | 0 mm | - | 0 W/m² | - |
| 1787449286 | 22.78° C | 96% | 1017.9 hPa | 0 mm | - | 0 W/m² | - |
| 1787448981 | 22.78° C | 96% | 1017.9 hPa | 0 mm | - | 0 W/m² | - |
| 1787448676 | 22.78° C | 95% | 1017.8 hPa | 0 mm | - | 0 W/m² | - |
| 1787448373 | 23.33° C | 95% | 1017.7 hPa | 0 mm | - | 0 W/m² | - |
| 1787448068 | 23.33° C | 94% | 1017.9 hPa | 0 mm | - | 0 W/m² | - |
| 1787447767 | 23.33° C | 94% | 1017.7 hPa | 0 mm | - | 0 W/m² | - |
| 1787447461 | 23.33° C | 94% | 1017.8 hPa | 0 mm | - | 0 W/m² | - |
| 1787447159 | 23.33° C | 93% | 1018 hPa | 0 mm | - | 0 W/m² | - |
| 1787446855 | 23.33° C | 93% | 1017.6 hPa | 0 mm | - | 0 W/m² | - |
| 1787446554 | 23.89° C | 92% | 1017.5 hPa | 0 mm | - | 0 W/m² | - |
| 1787446250 | 23.89° C | 92% | 1017.6 hPa | 0 mm | - | 0 W/m² | - |
| 1787445946 | 23.89° C | 90% | 1017.4 hPa | 0 mm | - | 0 W/m² | - |
| 1787445642 | 24.44° C | 89% | 1017.4 hPa | 0 mm | - | 0 W/m² | - |
| 1787445333 | 24.44° C | 87% | 1017.3 hPa | 0 mm | - | 0 W/m² | - |
| 1787445033 | 25° C | 87% | 1017.5 hPa | 0 mm | - | 0 W/m² | - |
* Rain latest hour (hover to see other rain measurements)
** Current wind speed in m/s (hover to see current wind gust speed)